Location: Angwan Shehu
(11.2514°N, 7.4613°E)
Time: 01:07:56
(UTC+00:00)

Tiros 1 - Pass Details

Date: 25 April 2021
Orbit: 630 x 664 km, 48.4° (Epoch: 06 May)

Event Time Altitude Azimuth Distance (km) Brightness Sun altitude
Rises 03:18:48 0° 192° (SSW) 2,976 - -27.8°
Reaches altitude 10° 03:21:41 10° 175° (S) 2,060 - -27.1°
Exits shadow 03:23:33 17° 154° (SSE) 1,634 9.2 -26.7°
Maximum altitude 03:25:10 20° 128° (SE) 1,493 9.3 -26.3°
Drops below altitude 10° 03:28:37 10° 80° (E) 2,046 10.7 -25.5°
Sets 03:31:27 0° 64° (ENE) 2,950 11.9 -24.9°
